[[{"header":{"parameterUnit":"m.s-1","parameterCategory":1,"la1":30.2991,"la2":30.254,"lo1":-89.0895,"lo2":-89.0444,"dy":0.0017,"dx":0.0017,"nx":28,"ny":28,"refTime":"2023-08-30T03:00:00:Z","depth":0,"parameterNumber":2,"parameterNumberName":"U-component_of_WINDS"},"data":[0,0,0,0,0,0,0,0,0,0,0,0,0,0,0,0,0,0,0,0,0,0,0,0,0,0,0,0,0,0,0,0,0,0,0,0,0,0,0,0,0,0,0,0,0,0,0,0,0,0,0,0,0,0,0,0,0,0,-0.8095,-0.8094,0,-0.8009,-0.8008,-0.8007,-0.7918,-0.7917,-0.7916,-0.7914,-0.7827,-0.7826,-0.7825,0,0,0,0,0,0,0,0,0,0,0,0,0,-0.8183,-0.8182,-0.8095,-0.8094,-0.8093,-0.8009,-0.8008,-0.8007,-0.7918,-0.7917,-0.7915,-0.7914,-0.7828,-0.7826,-0.7825,0,0,0,0,0,0,0,0,0,0,0,0,0,-0.8126,-0.8181,-0.8095,-0.8039,-0.8033,-0.8009,-0.8008,-0.8006,-0.7919,-0.7917,-0.7915,-0.7913,-0.7828,-0.7826,-0.7825,-0.785,0,0,-0.7819,-0.7818,0,0,0,0,0,0,0,0,-0.8129,-0.8122,-0.8048,-0.8043,-0.8036,-0.7972,-0.8007,-0.7954,-0.7919,-0.7962,-0.7914,-0.7912,-0.7877,-0.7871,-0.7859,-0.7846,-0.7842,-0.7819,-0.7818,-0.7817,-0.7817,0,0,0,0,0,0,0,-0.8133,-0.8126,-0.8061,-0.8047,-0.804,-0.8017,-0.8007,-0.7996,-0.7931,-0.7958,-0.7951,-0.7942,-0.7873,-0.7861,-0.7856,-0.7841,-0.7819,-0.7817,-0.7816,-0.7816,-0.7842,-0.7844,0,0,0,0,0,0,-0.8145,-0.8129,-0.8064,-0.8059,-0.8079,-0.8017,-0.8006,-0.7995,-0.7931,-0.7919,-0.7944,-0.7939,-0.7865,-0.7858,-0.7853,-0.7877,-0.7817,-0.7815,-0.7814,-0.784,-0.7843,-0.7845,0,0,0,0,0,0,-0.8148,-0.814,-0.8067,-0.8092,-0.8081,-0.8018,-0.8006,-0.7994,-0.7981,-0.792,-0.7908,-0.7943,-0.7863,-0.7855,-0.7851,-0.7873,-0.7815,-0.7813,-0.7838,-0.7841,-0.7844,-0.7928,0,0,0,0,0,0,-0.8151,-0.8142,-0.8151,-0.8093,-0.808,-0.8068,-0.8007,-0.7994,-0.7978,-0.797,-0.7916,-0.7906,-0.7861,-0.7854,-0.7849,-0.787,-0.7812,-0.7836,-0.784,-0.7843,-0.7923,-0.7933,-0.7942,0,0,0,0,0,-0.8154,-0.8179,-0.8152,-0.8145,-0.8091,-0.8069,-0.8062,-0.801,-0.7981,-0.7989,-0.7949,-0.7907,-0.7871,-0.7854,-0.7848,-0.7869,-0.7835,-0.7839,-0.7843,-0.7919,-0.7931,-0.7942,0,0,0,0,0,0,-0.8243,-0.8171,-0.814,-0.8147,-0.8115,-0.8054,-0.8064,-0.8025,-0.8,-0.7994,-0.7931,-0.7919,-0.7922,-0.7894,-0.7877,-0.7889,-0.7847,-0.785,-0.7907,-0.7918,-0.7928,-0.7935,-0.781,0,0,0,0,0,-0.8264,-0.8252,-0.8189,-0.8202,-0.8187,-0.8128,-0.8117,-0.8079,-0.8043,-0.8029,-0.7989,-0.7956,-0.7937,-0.7926,-0.7905,-0.7918,-0.7904,-0.7928,-0.7938,-0.7946,-0.795,-0.7953,-0.7963,-0.7858,-0.7858,-0.7858,0,0,-0.8306,-0.8265,-0.8262,-0.8218,-0.8189,-0.8178,-0.8117,-0.8109,-0.81,-0.8028,-0.8021,-0.799,-0.7949,-0.7953,-0.7953,-0.793,-0.7975,-0.7951,-0.7958,-0.7957,-0.7958,-0.7968,-0.7977,-0.786,-0.786,-0.7859,0,0,-0.8377,-0.8345,-0.8351,-0.8322,-0.8278,-0.8238,-0.824,-0.8184,-0.8161,-0.8152,-0.8098,-0.8086,-0.8055,-0.8027,-0.8009,-0.8066,-0.8026,-0.8061,-0.8111,-0.8115,-0.8123,-0.813,-0.815,-0.8158,-0.8065,-0.8065,-0.8065,0,-0.8436,-0.8417,-0.836,-0.8354,-0.8336,-0.8269,-0.8274,-0.8248,-0.82,-0.8189,-0.8164,-0.8122,-0.8089,-0.8085,-0.8099,-0.8086,-0.8085,-0.8068,-0.8127,-0.8133,-0.8139,-0.8157,-0.8165,-0.8069,-0.8069,-0.8068,-0.8068,0,-0.8491,-0.8479,-0.8489,-0.8442,-0.8425,-0.8425,-0.8367,-0.8356,-0.8319,-0.8282,-0.8273,-0.8231,-0.82,-0.8196,-0.8161,-0.8186,-0.8173,-0.8139,-0.8095,-0.8155,-0.8171,-0.8177,-0.8076,-0.8074,-0.8073,-0.8072,0,0,-0.8619,-0.8538,-0.8543,-0.852,-0.8465,-0.8454,-0.845,-0.8418,-0.841,-0.8378,-0.8372,-0.8346,-0.8313,-0.8292,-0.8252,-0.8256,-0.8303,-0.822,-0.8218,-0.8237,-0.8327,-0.8354,-0.8363,-0.8275,-0.8276,-0.8277,-0.833,0,-0.8681,-0.867,-0.8616,-0.862,-0.8608,-0.8542,-0.8538,-0.8503,-0.8468,-0.8451,-0.8411,-0.8394,-0.8351,-0.8338,-0.8338,-0.8297,-0.832,-0.8292,-0.8269,-0.8269,-0.8282,-0.8371,-0.84,-0.8453,-0.8336,-0.8337,-0.8338,0,-0.8753,-0.8724,-0.8727,-0.8669,-0.8662,-0.8659,-0.8625,-0.861,-0.8568,-0.8542,-0.8518,-0.8472,-0.8463,-0.8422,-0.8408,-0.839,-0.8377,-0.8355,-0.8356,-0.8352,-0.8308,-0.8371,-0.8469,-0.8477,-0.8347,-0.8347,-0.8346,0,-0.8846,-0.8807,-0.8803,-0.8786,-0.8719,-0.8718,-0.869,-0.8647,-0.863,-0.86,-0.8588,-0.8558,-0.8541,-0.8518,-0.8465,-0.844,-0.8457,-0.8411,-0.8434,-0.8436,-0.8442,-0.8442,-0.854,-0.8433,-0.8433,-0.8433,-0.8433,0,-0.8921,-0.8925,-0.8844,-0.8842,-0.8844,-0.8781,-0.8785,-0.8751,-0.8712,-0.8701,-0.8642,-0.8634,-0.8564,-0.8547,-0.8505,-0.8499,-0.8492,-0.847,-0.8459,-0.8476,-0.8479,-0.8467,-0.8462,-0.8435,-0.8434,-0.8434,-0.8434,0,-0.9026,-0.8971,-0.8963,-0.8899,-0.8883,-0.8887,-0.8833,-0.8827,-0.8787,-0.8774,-0.8767,-0.8704,-0.8681,-0.8625,-0.8587,-0.8559,-0.8564,-0.8544,-0.8578,-0.8571,-0.8597,-0.8596,-0.8691,-0.87,-0.8588,-0.8589,-0.859,0,-0.9078,-0.908,-0.9015,-0.9004,-0.8978,-0.896,-0.8942,-0.888,-0.8864,-0.8815,-0.8816,-0.8787,-0.8761,-0.8727,-0.8677,-0.8647,-0.8626,-0.8661,-0.8621,-0.8637,-0.8626,-0.8627,-0.8626,-0.8671,-0.8672,-0.8673,-0.8674,0,-0.9177,-0.9149,-0.9126,-0.9092,-0.9073,-0.9044,-0.9012,-0.9005,-0.8935,-0.892,-0.8894,-0.8874,-0.8834,-0.8807,-0.8768,-0.8739,-0.8695,-0.8687,-0.8691,-0.8708,-0.8728,-0.8717,-0.8603,-0.8686,-0.8684,-0.8684,-0.8683,-0.8683,-0.9256,-0.9254,-0.9208,-0.9183,-0.9152,-0.9122,-0.9114,-0.9071,-0.9049,-0.9012,-0.8976,-0.8954,-0.8909,-0.8854,-0.8827,-0.8808,-0.8786,-0.8791,-0.8793,-0.8795,-0.8802,-0.873,-0.8801,-0.88,-0.88,-0.88,-0.8799,0,-0.9351,-0.9318,-0.9296,-0.9252,-0.9232,-0.9191,-0.9152,-0.9138,-0.912,-0.9082,-0.9057,-0.9027,-0.8999,-0.8946,-0.8913,-0.8908,-0.8887,-0.8902,-0.8902,-0.8895,-0.8824,-0.8824,-0.8919,-0.8919,-0.8919,-0.8919,-0.8919,-0.8919,-0.9399,-0.9392,-0.9358,-0.9334,-0.93,-0.9278,-0.9259,-0.9231,-0.92,-0.9169,-0.9146,-0.9111,-0.9066,-0.9029,-0.9001,-0.8986,-0.8977,-0.8998,-0.8977,-0.8912,-0.8901,-0.889,-0.889,-0.8997,-0.8997,-0.9049,-0.905,-0.905]},{"header":{"parameterUnit":"m.s-1","parameterCategory":1,"la1":30.2991,"la2":30.254,"lo1":-89.0895,"lo2":-89.0444,"dy":0.0017,"dx":0.0017,"nx":28,"ny":28,"refTime":"2023-08-30T03:00:00:Z","depth":0,"parameterNumber":3,"parameterNumberName":"V-component_of_WINDS"},"data":[0,0,0,0,0,0,0,0,0,0,0,0,0,0,0,0,0,0,0,0,0,0,0,0,0,0,0,0,0,0,0,0,0,0,0,0,0,0,0,0,0,0,0,0,0,0,0,0,0,0,0,0,0,0,0,0,0,0,-4.0192,-4.0193,0,-4.0309,-4.031,-4.0311,-4.0268,-4.0265,-4.0262,-4.026,-4.0374,-4.0379,-4.0385,0,0,0,0,0,0,0,0,0,0,0,0,0,-3.9925,-3.993,-4.0192,-4.0193,-4.0195,-4.0308,-4.031,-4.0312,-4.0268,-4.0265,-4.0262,-4.0259,-4.0372,-4.0378,-4.0385,0,0,0,0,0,0,0,0,0,0,0,0,0,-4.0041,-3.9932,-4.0191,-4.0187,-4.0188,-4.0308,-4.031,-4.0312,-4.0269,-4.0265,-4.0261,-4.0257,-4.037,-4.0378,-4.0386,-4.0516,0,0,-4.0411,-4.0415,0,0,0,0,0,0,0,0,-4.0035,-4.0051,-4.0186,-4.0187,-4.0188,-4.027,-4.0258,-4.038,-4.027,-4.0238,-4.026,-4.0255,-4.0342,-4.0352,-4.0383,-4.0522,-4.0527,-4.0412,-4.0417,-4.042,-4.0423,0,0,0,0,0,0,0,-4.0027,-4.0046,-4.0238,-4.0188,-4.0189,-4.0177,-4.0189,-4.0281,-4.031,-4.024,-4.0237,-4.0252,-4.0342,-4.0375,-4.0385,-4.0528,-4.0412,-4.0419,-4.0424,-4.0427,-4.0779,-4.0783,0,0,0,0,0,0,-4.0019,-4.0039,-4.0234,-4.0241,-4.01,-4.0185,-4.0198,-4.0247,-4.0309,-4.0315,-4.0255,-4.025,-4.0363,-4.0375,-4.0389,-4.0545,-4.042,-4.0428,-4.0433,-4.0775,-4.078,-4.0785,0,0,0,0,0,0,-4.0013,-4.0037,-4.0229,-4.014,-4.0163,-4.0194,-4.0249,-4.0252,-4.0285,-4.0321,-4.0325,-4.0284,-4.036,-4.0377,-4.0485,-4.0549,-4.0432,-4.0439,-4.0769,-4.0776,-4.0782,-4.0859,0,0,0,0,0,0,-4.0006,-4.0035,-4.0086,-4.0141,-4.0168,-4.0326,-4.0253,-4.0257,-4.03,-4.0294,-4.0349,-4.0354,-4.0358,-4.0473,-4.0493,-4.0558,-4.0446,-4.0764,-4.0772,-4.078,-4.0851,-4.0868,-4.0882,0,0,0,0,0,-3.9996,-4.0102,-4.0089,-4.0113,-4.0233,-4.033,-4.0345,-4.0349,-4.0305,-4.0356,-4.0379,-4.0353,-4.0538,-4.0485,-4.0507,-4.0575,-4.076,-4.077,-4.078,-4.0844,-4.0865,-4.0882,0,0,0,0,0,0,-4.0052,-4.0109,-4.0095,-4.0223,-4.0272,-4.0322,-4.0386,-4.037,-4.0431,-4.0422,-4.0423,-4.0436,-4.0547,-4.0571,-4.051,-4.0704,-4.0642,-4.0657,-4.0684,-4.0703,-4.0718,-4.071,-4.0453,0,0,0,0,0,-4.0079,-4.0155,-4.02,-4.0307,-4.0333,-4.0356,-4.0398,-4.0397,-4.0447,-4.0467,-4.0498,-4.0546,-4.0615,-4.066,-4.0726,-4.0855,-4.0865,-4.0912,-4.0927,-4.094,-4.0953,-4.1021,-4.1043,-4.0817,-4.0817,-4.0817,0,0,-4.0136,-4.0177,-4.0224,-4.032,-4.0358,-4.0434,-4.0374,-4.0457,-4.0513,-4.0479,-4.0583,-4.0608,-4.0661,-4.078,-4.0834,-4.0804,-4.1017,-4.0952,-4.0962,-4.0968,-4.1034,-4.1055,-4.1074,-4.0824,-4.0823,-4.0822,0,0,-4.0278,-4.0317,-4.0411,-4.0451,-4.051,-4.0524,-4.0547,-4.06,-4.0615,-4.0721,-4.0697,-4.0762,-4.0881,-4.092,-4.0956,-4.1113,-4.109,-4.1134,-4.1214,-4.1281,-4.1299,-4.1314,-4.137,-4.139,-4.1146,-4.1147,-4.1147,0,-4.0341,-4.0457,-4.0461,-4.0547,-4.0589,-4.0564,-4.0658,-4.0695,-4.0772,-4.0801,-4.0766,-4.0916,-4.095,-4.1077,-4.1116,-4.1145,-4.117,-4.1128,-4.1296,-4.1312,-4.1327,-4.1379,-4.14,-4.1152,-4.1151,-4.1151,-4.115,0,-4.053,-4.0611,-4.0679,-4.0756,-4.0806,-4.0895,-4.0911,-4.0961,-4.0955,-4.0972,-4.1079,-4.1119,-4.1192,-4.1222,-4.1217,-4.1349,-4.1329,-4.1296,-4.1234,-4.1353,-4.1403,-4.1423,-4.1159,-4.1157,-4.1155,-4.1154,0,0,-4.0711,-4.0789,-4.0814,-4.0849,-4.0912,-4.0973,-4.1061,-4.1134,-4.1176,-4.123,-4.1302,-4.1403,-4.1373,-4.1414,-4.1412,-4.1471,-4.1592,-4.1431,-4.1432,-4.1459,-4.1739,-4.1764,-4.1787,-4.1578,-4.1582,-4.1585,-4.1735,0,-4.0858,-4.1014,-4.102,-4.1161,-4.1235,-4.1212,-4.1288,-4.1334,-4.1352,-4.1416,-4.1435,-4.1507,-4.1462,-4.1486,-4.1544,-4.1566,-4.1649,-4.1555,-4.1644,-4.1647,-4.1631,-4.1813,-4.1839,-4.1979,-4.1754,-4.1757,-4.176,0,-4.1051,-4.1112,-4.1262,-4.1314,-4.1345,-4.1414,-4.1481,-4.1543,-4.1594,-4.1603,-4.1648,-4.1638,-4.1725,-4.1661,-4.178,-4.1716,-4.1753,-4.1769,-4.1775,-4.1783,-4.171,-4.1826,-4.2023,-4.2044,-4.179,-4.1788,-4.1786,0,-4.1167,-4.1287,-4.1392,-4.1422,-4.1486,-4.1534,-4.1563,-4.161,-4.1654,-4.1712,-4.174,-4.1807,-4.1843,-4.1894,-4.1902,-4.1854,-4.2022,-4.1958,-4.203,-4.203,-4.2066,-4.2064,-4.2272,-4.209,-4.209,-4.209,-4.2089,0,-4.1331,-4.1423,-4.1445,-4.1509,-4.1611,-4.1616,-4.1716,-4.1741,-4.1783,-4.185,-4.1833,-4.1896,-4.1903,-4.1967,-4.1973,-4.2071,-4.2087,-4.2096,-4.2096,-4.2098,-4.2097,-4.2121,-4.2112,-4.2095,-4.2094,-4.2093,-4.2092,0,-4.1478,-4.1497,-4.1609,-4.1661,-4.1676,-4.1749,-4.1792,-4.1852,-4.1869,-4.1954,-4.1975,-4.2,-4.2075,-4.2088,-4.2176,-4.218,-4.2296,-4.2287,-4.228,-4.2279,-4.235,-4.2343,-4.2581,-4.2612,-4.2411,-4.2413,-4.2414,0,-4.1581,-4.1651,-4.1711,-4.1756,-4.1788,-4.186,-4.1905,-4.1912,-4.1959,-4.2022,-4.2075,-4.2148,-4.2208,-4.2328,-4.2353,-4.242,-4.2412,-4.2491,-4.2421,-4.242,-4.2412,-4.2408,-4.2415,-4.2504,-4.2506,-4.2508,-4.2509,0,-4.1762,-4.1767,-4.1834,-4.1904,-4.1959,-4.2013,-4.2065,-4.2102,-4.2116,-4.2169,-4.2247,-4.2293,-4.2383,-4.2456,-4.2523,-4.2549,-4.2532,-4.2531,-4.2551,-4.2553,-4.2546,-4.255,-4.2316,-4.2525,-4.2524,-4.2522,-4.2522,-4.2521,-4.189,-4.1951,-4.2003,-4.2077,-4.2117,-4.2166,-4.2226,-4.2251,-4.2316,-4.2392,-4.2391,-4.2476,-4.2524,-4.2611,-4.2643,-4.2708,-4.2682,-4.2711,-4.2719,-4.2726,-4.2733,-4.2536,-4.272,-4.2719,-4.2719,-4.2718,-4.2718,0,-4.2069,-4.2101,-4.217,-4.2244,-4.2302,-4.2282,-4.2338,-4.2388,-4.2463,-4.251,-4.257,-4.2658,-4.2729,-4.276,-4.2828,-4.2874,-4.2868,-4.2892,-4.2889,-4.2895,-4.2752,-4.2728,-4.2896,-4.2896,-4.2896,-4.2896,-4.2896,-4.2896,-4.2169,-4.2272,-4.2284,-4.2407,-4.2438,-4.2522,-4.2556,-4.26,-4.2638,-4.2739,-4.2798,-4.2818,-4.2858,-4.293,-4.2993,-4.3,-4.3026,-4.3054,-4.3058,-4.2923,-4.2905,-4.2888,-4.2865,-4.306,-4.306,-4.3195,-4.3196,-4.3197]}]]